Location: ???????
(55.5931°N, 39.3286°E)
Time: 02:32:54
(UTC+00:00)

Meteor 1-27 Rocket - Pass Details

Date: 14 April 2024
Orbit: 829 x 909 km, 81.3° (Epoch: 28 May)

Event Time Altitude Azimuth Distance (km) Brightness Sun altitude
Exits shadow 01:15:04 - 211° (SSW) 2,742 5.8 -9.1°
Reaches altitude 10° 01:15:36 10° 212° (SSW) 2,542 5.6 -9.1°
Maximum altitude 01:21:16 56° 290° (WNW) 1,037 4.0 -8.4°
Drops below altitude 10° 01:26:52 10° 9° (N) 2,504 6.7 -7.7°
Sets 01:29:21 0° 14° (NNE) 3,433 7.6 -7.4°
